When you browse on this site, cookies collect data to enhance your experience and personalize the content and advertising you see.
Visit our Privacy Policy to learn more. By continuing to use the site, you agree to this use of cookies and data.
  • In Hungary
  • List of Countries
  • For 7 days
  • Water Temperature
  • Satellite Maps
  • Weather Map
  • News
  • Weather Widgets
  • user-avatar
    Login

    Hourly Weather Chandur

    Today, 19 January, Saturday

    Time Temperature Precipitation Wind Pressure Humidity
    00:00 +21°C° 0 mm 1 mps 740 mmHg 39%
    01:00 +21°C° 0 mm 1 mps 740 mmHg 40%
    02:00 +20°C° 0 mm 1 mps 740 mmHg 41%
    03:00 +20°C° 0 mm 1 mps 740 mmHg 42%
    04:00 +19°C° 0 mm 1 mps 740 mmHg 43%
    05:00 +18°C° 0 mm 1 mps 739 mmHg 48%
    06:00 +19°C° 0 mm 1 mps 740 mmHg 44%
    07:00 +20°C° 0 mm 1 mps 740 mmHg 41%
    08:00 +21°C° 0 mm 1 mps 741 mmHg 37%
    09:00 +23°C° 0 mm 1 mps 741 mmHg 33%
    10:00 +26°C° 0 mm 2 mps 741 mmHg 28%
    11:00 +28°C° 0 mm 2 mps 741 mmHg 24%
    12:00 +29°C° 0 mm 2 mps 740 mmHg 22%
    13:00 +30°C° 0 mm 2 mps 740 mmHg 21%
    14:00 +31°C° 0 mm 2 mps 739 mmHg 19%
    15:00 +30°C° 0 mm 2 mps 739 mmHg 21%
    16:00 +29°C° 0 mm 1 mps 739 mmHg 23%
    17:00 +28°C° 0 mm 1 mps 739 mmHg 25%
    18:00 +27°C° 0 mm 1 mps 739 mmHg 26%
    19:00 +25°C° 0 mm 1 mps 739 mmHg 27%
    20:00 +24°C° 0 mm 1 mps 740 mmHg 27%
    21:00 +23°C° 0 mm 1 mps 740 mmHg 27%
    22:00 +22°C° 0 mm 1 mps 740 mmHg 27%
    23:00 +22°C° 0 mm 1 mps 740 mmHg 27%

    Tomorrow, 20 January, Sunday

    Time Temperature Precipitation Wind Pressure Humidity
    00:00 +21°C° 0 mm 1 mps 740 mmHg 27%
    01:00 +20°C° 0 mm 1 mps 740 mmHg 27%
    02:00 +20°C° 0 mm 1 mps 739 mmHg 27%
    03:00 +19°C° 0 mm 1 mps 740 mmHg 28%
    04:00 +19°C° 0 mm 1 mps 740 mmHg 28%
    05:00 +18°C° 0 mm 1 mps 740 mmHg 29%
    06:00 +19°C° 0 mm 1 mps 741 mmHg 29%
    07:00 +20°C° 0 mm 1 mps 741 mmHg 29%
    08:00 +19°C° 0 mm 0 mps 742 mmHg 28%
    09:00 +24°C° 0 mm 1 mps 742 mmHg 25%
    10:00 +27°C° 0 mm 1 mps 742 mmHg 22%
    11:00 +29°C° 0 mm 1 mps 742 mmHg 19%
    12:00 +30°C° 0 mm 1 mps 741 mmHg 17%
    13:00 +32°C° 0 mm 1 mps 741 mmHg 16%
    14:00 +33°C° 0 mm 1 mps 740 mmHg 14%
    15:00 +32°C° 0 mm 1 mps 740 mmHg 16%
    16:00 +30°C° 0 mm 1 mps 739 mmHg 18%
    17:00 +29°C° 0 mm 1 mps 739 mmHg 20%
    18:00 +28°C° 0 mm 1 mps 740 mmHg 21%
    19:00 +26°C° 0 mm 1 mps 740 mmHg 22%
    20:00 +24°C° 0 mm 1 mps 740 mmHg 23%
    21:00 +24°C° 0 mm 1 mps 740 mmHg 23%
    22:00 +24°C° 0 mm 1 mps 740 mmHg 24%
    23:00 +23°C° 0 mm 1 mps 740 mmHg 25%

    Day after tomorrow, 21 January, Monday

    Time Temperature Precipitation Wind Pressure Humidity
    00:00 +22°C° 0 mm 1 mps 740 mmHg 26%
    01:00 +22°C° 0 mm 1 mps 740 mmHg 27%
    02:00 +21°C° 0 mm 1 mps 740 mmHg 28%
    03:00 +21°C° 0 mm 1 mps 739 mmHg 29%
    04:00 +20°C° 0 mm 1 mps 739 mmHg 30%
    05:00 +20°C° 0 mm 1 mps 739 mmHg 31%
    06:00 +21°C° 0 mm 1 mps 740 mmHg 31%
    07:00 +22°C° 0 mm 1 mps 741 mmHg 31%
    08:00 +23°C° 0 mm 2 mps 741 mmHg 31%
    09:00 +26°C° 0 mm 2 mps 741 mmHg 29%
    10:00 +28°C° 0 mm 2 mps 741 mmHg 27%
    11:00 +31°C° 0 mm 3 mps 741 mmHg 25%
    12:00 +33°C° 0 mm 3 mps 740 mmHg 24%
    13:00 +33°C° 0 mm 3 mps 739 mmHg 22%
    14:00 +34°C° 0 mm 3 mps 738 mmHg 20%
    15:00 +32°C° 0 mm 2 mps 738 mmHg 23%
    16:00 +31°C° 0 mm 2 mps 738 mmHg 25%
    17:00 +30°C° 0 mm 2 mps 738 mmHg 27%
    18:00 +29°C° 0 mm 2 mps 738 mmHg 30%
    19:00 +27°C° 0 mm 2 mps 739 mmHg 33%
    20:00 +26°C° 0 mm 2 mps 739 mmHg 35%
    21:00 +25°C° 0 mm 3 mps 739 mmHg 38%
    22:00 +25°C° 0 mm 3 mps 739 mmHg 41%
    23:00 +24°C° 0 mm 3 mps 739 mmHg 43%

    22 January, Tuesday

    Time Temperature Precipitation Wind Pressure Humidity
    00:00 +24°C° 0 mm 3 mps 738 mmHg 46%
    01:00 +23°C° 0 mm 4 mps 738 mmHg 49%
    02:00 +22°C° 0 mm 4 mps 738 mmHg 52%
    03:00 +22°C° 0 mm 4 mps 738 mmHg 56%
    04:00 +21°C° 0 mm 3 mps 738 mmHg 59%
    05:00 +20°C° 0 mm 3 mps 738 mmHg 63%
    06:00 +21°C° 0 mm 4 mps 739 mmHg 60%
    07:00 +22°C° 0 mm 4 mps 739 mmHg 57%
    08:00 +23°C° 0 mm 4 mps 740 mmHg 54%
    09:00 +26°C° 0 mm 4 mps 740 mmHg 46%
    10:00 +28°C° 0 mm 4 mps 740 mmHg 37%
    11:00 +30°C° 0 mm 4 mps 740 mmHg 29%
    12:00 +32°C° 0 mm 4 mps 739 mmHg 26%
    13:00 +33°C° 0 mm 3 mps 739 mmHg 24%
    14:00 +34°C° 0 mm 3 mps 738 mmHg 21%
    15:00 +32°C° 0 mm 2 mps 737 mmHg 23%
    16:00 +31°C° 0 mm 2 mps 737 mmHg 25%
    17:00 +31°C° 0 mm 1 mps 737 mmHg 27%
    18:00 +29°C° 0 mm 1 mps 738 mmHg 28%
    19:00 +28°C° 0 mm 2 mps 739 mmHg 30%
    20:00 +26°C° 0 mm 2 mps 739 mmHg 32%
    21:00 +25°C° 0 mm 2 mps 739 mmHg 33%
    22:00 +25°C° 0 mm 2 mps 739 mmHg 35%
    23:00 +24°C° 0 mm 3 mps 739 mmHg 36%

    23 January, Wednesday

    Time Temperature Precipitation Wind Pressure Humidity
    00:00 +24°C° 0 mm 3 mps 739 mmHg 40%
    01:00 +22°C° 0 mm 3 mps 738 mmHg 44%
    02:00 +22°C° 0 mm 3 mps 738 mmHg 48%
    03:00 +21°C° 0 mm 3 mps 738 mmHg 52%
    04:00 +21°C° 0 mm 3 mps 738 mmHg 57%
    05:00 +20°C° 0 mm 3 mps 738 mmHg 61%
    06:00 +21°C° 0 mm 3 mps 739 mmHg 60%
    07:00 +22°C° 0 mm 3 mps 740 mmHg 58%
    08:00 +22°C° 0 mm 3 mps 741 mmHg 57%
    09:00 +26°C° 0 mm 3 mps 741 mmHg 48%
    10:00 +28°C° 0 mm 3 mps 741 mmHg 40%
    11:00 +30°C° 0 mm 3 mps 741 mmHg 31%
    12:00 +31°C° 0 mm 3 mps 740 mmHg 28%
    13:00 +33°C° 0 mm 3 mps 739 mmHg 25%
    14:00 +34°C° 0 mm 2 mps 738 mmHg 21%
    15:00 +32°C° 0 mm 2 mps 738 mmHg 23%
    16:00 +31°C° 0 mm 2 mps 738 mmHg 24%
    17:00 +31°C° 0 mm 2 mps 738 mmHg 26%
    18:00 +29°C° 0 mm 2 mps 738 mmHg 27%
    19:00 +28°C° 0 mm 2 mps 739 mmHg 27%
    20:00 +26°C° 0 mm 2 mps 739 mmHg 28%
    21:00 +26°C° 0 mm 2 mps 739 mmHg 29%
    22:00 +25°C° 0 mm 2 mps 739 mmHg 29%
    23:00 +25°C° 0 mm 2 mps 739 mmHg 29%

    24 January, Thursday

    Time Temperature Precipitation Wind Pressure Humidity
    00:00 +24°C° 0 mm 2 mps 739 mmHg 31%
    01:00 +23°C° 0 mm 2 mps 739 mmHg 33%
    02:00 +23°C° 0 mm 2 mps 739 mmHg 35%
    03:00 +21°C° 0 mm 2 mps 739 mmHg 38%
    04:00 +20°C° 0 mm 2 mps 739 mmHg 41%
    05:00 +19°C° 0 mm 2 mps 739 mmHg 45%
    06:00 +20°C° 0 mm 2 mps 740 mmHg 47%
    07:00 +21°C° 0 mm 2 mps 740 mmHg 50%
    08:00 +23°C° 0 mm 2 mps 741 mmHg 53%
    09:00 +26°C° 0 mm 3 mps 741 mmHg 45%
    10:00 +28°C° 0 mm 3 mps 741 mmHg 38%
    11:00 +32°C° 0 mm 4 mps 741 mmHg 30%
    12:00 +33°C° 0 mm 4 mps 740 mmHg 26%
    13:00 +34°C° 0 mm 4 mps 739 mmHg 22%
    14:00 +35°C° 0 mm 4 mps 738 mmHg 18%
    15:00 +34°C° 0 mm 3 mps 738 mmHg 20%
    16:00 +33°C° 0 mm 3 mps 738 mmHg 22%
    17:00 +30°C° 0 mm 2 mps 738 mmHg 23%
    18:00 +29°C° 0 mm 2 mps 738 mmHg 24%
    19:00 +27°C° 0 mm 2 mps 739 mmHg 25%
    20:00 +26°C° 0 mm 3 mps 739 mmHg 26%
    21:00 +25°C° 0 mm 3 mps 739 mmHg 28%
    22:00 +25°C° 0 mm 3 mps 739 mmHg 30%
    23:00 +23°C° 0 mm 4 mps 739 mmHg 32%
    Show more